{"data":{"norad_id":59169,"epoch":"2026-05-25T01:33:42.174144Z","epoch_age_seconds":80106,"freshness":"FRESH","line1":"1 59169U 24044T   26145.06507146 -.00000269  00000+0 -25907-6 0  9998","line2":"2 59169  43.0014  35.9196 0000962 261.0594  99.0148 15.27577682125246","mean_motion":15.27577682,"eccentricity":9.62e-5,"inclination_deg":43.0014,"raan_deg":35.9196,"arg_perigee_deg":261.0594,"mean_anomaly_deg":99.0148,"bstar":-2.5907e-7,"rev_number":12524,"period_min":94.266891757325,"perigee_km":482.39599020417,"apogee_km":483.71608374448,"semimajor_km":6861.1930369743,"source":"CELESTRAK","updated_at":"2026-05-25T13:38:18.836145Z"}}